Regional Weather Roundup
Issued by NWS State College, PA

Home | Current Version | Previous Version | Text Only | Print | Product List | Glossary On
Versions: 1 2 3 4 5 6 7 8 9 10 11 12 13 14 15 16 17 18 19 20 21 22 23 24 25 26 27 28 29 30 31 32 33 34 35 36 37 38 39 40 41 42 43 44 45 46 47 48 49 50
770
ASUS41 KCTP 260210
RWRCTP

REGIONAL WEATHER ROUNDUP
NATIONAL WEATHER SERVICE STATE COLLEGE PA
1000 PM EDT WED MAY 25 2016

Note: "fair" indicates few or no clouds below 12,000 feet with no
significant weather and/or obstructions to visibility.

* = STATION THAT DOES NOT REPORT PRECIPITATION /E.G. RAIN...SNOW...ETC/
    THUNDER OR FOG.

PAZ002>004-007>009-013>016-020>023-029>032-260300-
WESTERN PENNSYLVANIA

CITY           SKY/WX    TMP DP  RH WIND       PRES   REMARKS
ERIE           CLOUDY    70  55  59 S6        30.07R
MEADVILLE      CLOUDY    69  52  54 CALM      30.11R
FRANKLIN*      CLOUDY    68  46  45 S6        30.14R
NEW CASTLE     MOCLDY    68  56  65 S3        30.11R
BEAVER COUNTY  NOT AVBL
BUTLER*        CLOUDY    66  52  59 CALM      30.14S
PITTSBURGH INT CLOUDY    74  53  48 SW5       30.12R
PITTSBURGH     CLOUDY    75  52  44 SW6       30.12R
INDIANA*       CLEAR     64  54  68 CALM      30.17R
LATROBE        CLEAR     64  57  77 CALM      30.13R
WASHINGTON CO* CLOUDY    64  59  82 CALM      30.13R
$$

PAZ004>006-010>012-017>019-024>028-033>037-041-042-045-046-049>053-260300-
CENTRAL PENNSYLVANIA

CITY           SKY/WX    TMP DP  RH WIND       PRES   REMARKS
BRADFORD       CLOUDY    63  49  60 CALM      30.15R
DUBOIS         PTCLDY    68  44  42 S5        30.14R
CLEARFIELD     PTCLDY    69  48  47 CALM      30.14R
JOHNSTOWN      PTCLDY    70  41  34 SW5       30.17S
ALTOONA        CLEAR     67  50  54 CALM      30.15R
STATE COLLEGE  PTCLDY    69  50  51 CALM      30.13R
WILLIAMSPORT   CLEAR     70  52  52 CALM      30.06R
SELINSGROVE    CLEAR     69  55  60 S5        30.09R
FT INDIANTOWN  CLEAR     64  56  74 NE2       30.10R
CAPITAL CITY   CLEAR     77  50  38 SW7       30.09R
HARRISBURG     PTCLDY    76  55  48 SW13      30.09R
YORK           CLEAR     71  53  52 S7        30.11R
$$

PAZ038>040-043-044-047-048-054-055-060>062-067>071-260300-
EASTERN PENNSYLVANIA

CITY           SKY/WX    TMP DP  RH WIND       PRES   REMARKS
SCRANTON       CLEAR     73  50  44 S3        30.09R
MOUNT POCONO   CLEAR     58  49  72 W5        30.14R
ALLENTOWN      CLEAR     71  50  47 SW5       30.08R
QUAKERTOWN*    CLEAR     66  54  63 CALM      30.11R
READING        PTCLDY    74  50  42 W3        30.08R
LANCASTER      CLEAR     72  52  49 SW3       30.10R
COATESVILLE    CLEAR     73  50  43 VRB3      30.13S
POTTSTOWN      CLEAR     70  50  49 CALM      30.11R
BLUE BELL      PTCLDY    72  52  49 CALM      30.09R
DOYLESTOWN     CLEAR     71  47  42 SW3       30.09R
WILLOW GROVE   NOT AVBL
NORTH PHILA    CLEAR     77  52  41 SW9       30.10R
PHILADELPHIA   CLEAR     76  52  43 SW9       30.10R
$$




USA.gov is the U.S. government's official web portal to all federal, state and local government web resources and services.